Cuyo Airport


Codes: RPLO/CYU
Name: Cuyo Airport
City: Cuyo
Country: Philippines
Elevation: 0 ft.

Photos at Cuyo Airport


   Photos courtesy of SpottingLog. You can add your own sightings and photos by signing up for a free trial today.



No photos found.

Weather at Cuyo Airport


Time (UTC)DescriptionTempratureWindCloud coverageVisibilityPressureHumidity
17-Jun-2024 06:00Overcast Clouds28°C7 mph, SW100%10000m1009hPa75%
17-Jun-2024 09:00Overcast Clouds28°C7 mph, W100%10000m1009hPa74%
17-Jun-2024 12:00Overcast Clouds28°C2 mph, W100%10000m1010hPa72%
17-Jun-2024 15:00Overcast Clouds28°C2 mph, NW99%10000m1010hPa70%
17-Jun-2024 18:00Overcast Clouds28°C2 mph, W94%10000m1009hPa71%
17-Jun-2024 21:00Overcast Clouds28°C2 mph, W93%10000m1009hPa70%
18-Jun-2024 00:00Overcast Clouds29°C2 mph, W88%10000m1010hPa69%
18-Jun-2024 03:00Overcast Clouds29°C4 mph, W100%10000m1009hPa69%
18-Jun-2024 06:00Overcast Clouds29°C4 mph, W95%10000m1008hPa67%
18-Jun-2024 09:00Overcast Clouds29°C4 mph, W100%10000m1007hPa67%
18-Jun-2024 12:00Overcast Clouds29°C2 mph, W100%10000m1009hPa67%
18-Jun-2024 15:00Light Rain29°C4 mph, W100%10000m1010hPa71%
18-Jun-2024 18:00Light Rain28°C7 mph, NW100%10000m1008hPa81%
18-Jun-2024 21:00Light Rain28°C11 mph, NW100%10000m1008hPa80%
19-Jun-2024 00:00Light Rain28°C9 mph, NW100%10000m1009hPa78%
19-Jun-2024 03:00Light Rain28°C7 mph, NW100%6731m1009hPa77%
19-Jun-2024 06:00Moderate Rain28°C7 mph, SW100%10000m1007hPa77%
19-Jun-2024 09:00Overcast Clouds28°C4 mph, SW100%10000m1007hPa76%
19-Jun-2024 12:00Light Rain27°C2 mph, SE100%10000m1008hPa82%
19-Jun-2024 15:00Light Rain27°C4 mph, SW100%10000m1008hPa78%
19-Jun-2024 18:00Overcast Clouds28°C4 mph, SW96%10000m1007hPa75%
19-Jun-2024 21:00Light Rain28°C4 mph, W98%10000m1007hPa72%
20-Jun-2024 00:00Light Rain28°C4 mph, SW82%10000m1008hPa71%
20-Jun-2024 03:00Light Rain28°C9 mph, S99%10000m1008hPa76%
20-Jun-2024 06:00Light Rain27°C9 mph, S100%10000m1006hPa79%
20-Jun-2024 09:00Light Rain27°C9 mph, SW100%10000m1006hPa78%
20-Jun-2024 12:00Moderate Rain28°C7 mph, S100%10000m1008hPa77%
20-Jun-2024 15:00Light Rain28°C9 mph, SW100%7777m1008hPa78%
20-Jun-2024 18:00Light Rain28°C11 mph, SW100%9004m1006hPa78%
20-Jun-2024 21:00Moderate Rain28°C9 mph, W100%8627m1007hPa77%
21-Jun-2024 00:00Light Rain28°C4 mph, W100%10000m1008hPa74%
21-Jun-2024 03:00Light Rain28°C4 mph, SW100%10000m1008hPa72%
21-Jun-2024 06:00Overcast Clouds28°C9 mph, SW96%10000m1006hPa73%
21-Jun-2024 09:00Light Rain28°C9 mph, SW100%10000m1006hPa76%
21-Jun-2024 12:00Moderate Rain28°C9 mph, SW100%8381m1009hPa82%
21-Jun-2024 15:00Light Rain28°C18 mph, SW100%10000m1009hPa82%
21-Jun-2024 18:00Moderate Rain27°C27 mph, SW100%4059m1007hPa90%
21-Jun-2024 21:00Heavy Intensity Rain27°C22 mph, SW100%4463m1007hPa89%
22-Jun-2024 00:00Moderate Rain27°C20 mph, SW100%7136m1009hPa90%
22-Jun-2024 03:00Moderate Rain27°C20 mph, SW100%4250m1009hPa90%